Regional Weather Roundup
Issued by NWS

Home | Current Version | Previous Version | Text Only | Print | Product List | Glossary Off
Versions: 1 2 3 4 5 6 7 8 9 10 11 12 13 14 15 16 17 18 19 20 21 22 23 24 25 26 27 28 29 30 31 32 33 34 35 36 37 38 39 40 41 42 43 44 45 46 47 48 49 50

371
ASUS45 KSLC 090310
RWRUT

UTAH REGIONAL WEATHER ROUNDUP
NATIONAL WEATHER SERVICE SALT LAKE CITY UT
800 PM MST THU DEC 08 2016

UTZ001>011-023>025-090400-

NORTHERN UTAH

CITY           SKY/WX    TMP DP  RH WIND       PRES   REMARKS
BRIGHAM CITY     N/A     23  20  88 CALM      30.16F
HILL AFB       CLOUDY    25  19  80 VRB3      30.14R
LOGAN          LGT SNOW  19  18  95 CALM      30.16F VSB 1
OGDEN          CLOUDY    23  21  92 CALM      30.14S
SALT LAKE CITY CLOUDY    27  23  85 NW8       30.16R WCI  19
WENDOVER       MOCLDY    21  16  79 NW3       30.17S
HEBER CITY     LGT SNOW  28  25  86 NW3       30.12S

$$

UTZ011>015-024>027-090400-

CENTRAL/NORTHEAST UTAH

CITY           SKY/WX    TMP DP  RH WIND       PRES   REMARKS
PROVO AIRPORT  CLOUDY    31  24  75 CALM      30.17S
MOAB/CANYONLAN CLEAR     22   4  46 W5        30.26F WCI  16
DELTA          CLOUDY    32  14  47 SW6       30.15S WCI  26
PRICE          CLOUDY    24   9  52 NW3       30.24S
RICHFIELD      CLOUDY    28  14  54 CALM      30.20S
ROOSEVELT      LGT SNOW  23  19  86 W5        30.25F WCI  17
VERNAL         CLOUDY    21   7  54 CALM      30.24R

$$

UTZ013>016-019>022-027-090400-

SOUTHERN UTAH

CITY           SKY/WX    TMP DP  RH WIND       PRES   REMARKS
BRYCE CANYON   PTCLDY    15   8  73 SW3       30.24S
CEDAR CITY     MOCLDY    36  21  54 NE3       30.21R
MILFORD        MOCLDY    40  18  41 S22       30.17S WCI  30
ST GEORGE      MOCLDY    41  12  30 E6        30.28R
HANKSVILLE     CLEAR     28   3  34 CALM      30.31S
KANAB          PTCLDY    34  14  44 NE5       30.29R WCI  30
BLANDING       PTCLDY    28   9  46 N7        30.35S WCI  20

$$

REGIONAL REPORTS     COLORADO/ARIZONA

CITY           SKY/WX    TMP DP  RH WIND       PRES   REMARKS
CRAIG, CO      CLOUDY    20  12  71 E10       30.17F WCI   9
GRAND JUNCTION CLOUDY    26  15  63 CALM      30.27F
RIFLE, CO        N/A     24  10  55 E3        30.26S
MONTROSE, CO   CLOUDY    28  15  58 S5        30.28S WCI  23
CORTEZ, CO     CLOUDY    28  21  75 NE5       30.29S WCI  23
COLORADO CITY    N/A     30  23  74 SE3       30.27S
PAGE, AZ       PTCLDY    34   6  31 SE3       30.26S
GRAND CANYON   CLOUDY    31  24  75 NE3       30.29R
KINGMAN, AZ    PTCLDY    40  19  43 S6        30.25R
FLAGSTAFF, AZ  CLEAR     28  22  78 W3        30.29R

$$

REGIONAL REPORTS    NEVADA/IDAHO/WYOMING

CITY           SKY/WX    TMP DP  RH WIND       PRES   REMARKS
LAS VEGAS, NV  MOCLDY    51   8  17 CALM      30.25R
ELY, NY        CLOUDY    32  14  47 NE6       30.19R WCI  26
ELKO, NV       MIX PCPN  29  25  85 CALM      30.10R
POCATELLO, ID  CLOUDY    21  19  92 N8        30.11S WCI  11
BURLEY, ID     LGT SNOW  22  19  89 NE9       30.06S FOG     WCI  12
FORT BRIDGER,  LGT SNOW   8   6  92 CALM      30.12S
EVANSTON, WY   LGT SNOW  10   5  80 E7        30.06S WCI  -1
ROCK SPRINGS,  FLURRIES   8   6  92 SW6       30.09F WCI  -2

$$




USA.gov is the U.S. government's official web portal to all federal, state and local government web resources and services.